Weather History for KYKN - January, 2013

Change the Weather History Date:

Wednesday, January 16, 2013

  Actual Average Record
Temperature  
Mean Temperature 34 °F -  
Max Temperature 48 °F 29 °F 57 °F (1986)
Min Temperature 21 °F 6 °F -21 °F (1953)
Degree Days  
Heating Degree Days 30    
Moisture  
Dew Point 27 °F    
Average Humidity 70    
Maximum Humidity 87    
Minimum Humidity 46    
Precipitation  
Precipitation 0.00 in - - ()
Sea Level Pressure  
Sea Level Pressure 29.97 in    
Wind  
Wind Speed 14 mph (WNW)    
Max Wind Speed 25 mph    
Max Gust Speed 33 mph    
Visibility 10 miles    
Events      
Averages and records for this station are not official NWS values.
T = Trace of Precipitation, MM = Missing Value Source: NWS Daily Summary

Daily Weather History Graph

Daily Weather History Graph

Search for Another Location

Airport or City:

Trip Planner

Search our weather history database for the weather conditions in past years. The results will help you decide how hot, cold, wet, or windy it might be!

Date:

Astronomy

Jan. 16, 2013 Rise Set
Actual Time 7:57 AM CST 5:22 PM CST
Civil Twilight 7:25 AM CST 5:53 PM CST
Nautical Twilight 6:50 AM CST 6:28 PM CST
Astronomical Twilight 6:17 AM CST 7:02 PM CST
Moon 10:24 AM CST (1/16) 11:25 PM CST (1/16)
Length of Visible Light 10h 27m
Length of Day
9h 25m
Waxing Crescent, 28% of the Moon is Illuminated
Jan 16
Waxing Crescent
Jan 18
First Quarter
Jan 26
Full
Feb 3
Last Quarter
Feb 10
New

Hourly Weather History & Observations

Time (CST) Temp. Windchill Dew Point Humidity Pressure Visibility Wind Dir Wind Speed Gust Speed Precip Events Conditions
12:15 AM 26.6 °F 16.2 °F 14.0 °F 59% 29.87 in 10.0 mi SW 11.5 mph - N/A   Overcast
12:35 AM 28.4 °F 18.5 °F 15.8 °F 59% 29.87 in 10.0 mi SW 11.5 mph - N/A   Overcast
12:55 AM 28.4 °F 17.5 °F 17.6 °F 64% 29.86 in 10.0 mi SW 13.8 mph - N/A   Overcast
1:15 AM 28.4 °F 17.5 °F 19.4 °F 69% 29.85 in 10.0 mi SW 13.8 mph - N/A   Overcast
1:35 AM 28.4 °F 17.0 °F 21.2 °F 74% 29.84 in 10.0 mi SSW 15.0 mph - N/A   Overcast
1:55 AM 30.2 °F 19.8 °F 23.0 °F 75% 29.83 in 10.0 mi SSW 13.8 mph - N/A   Overcast
2:15 AM 30.2 °F 19.3 °F 24.8 °F 80% 29.83 in 10.0 mi SW 15.0 mph - N/A   Overcast
2:35 AM 30.2 °F 19.8 °F 24.8 °F 80% 29.83 in 10.0 mi SW 13.8 mph - N/A   Overcast
2:55 AM 30.2 °F 19.3 °F 24.8 °F 80% 29.82 in 10.0 mi SW 15.0 mph - N/A   Overcast
3:15 AM 30.2 °F 19.3 °F 26.6 °F 86% 29.82 in 10.0 mi SW 15.0 mph 18.4 mph N/A   Overcast
3:35 AM 32.0 °F 22.5 °F 26.6 °F 80% 29.81 in 10.0 mi SW 12.7 mph - N/A   Overcast
3:55 AM 33.8 °F 24.3 °F 28.4 °F 81% 29.81 in 10.0 mi SW 13.8 mph - N/A   Overcast
4:15 AM 33.8 °F 24.8 °F 28.4 °F 81% 29.81 in 10.0 mi WSW 12.7 mph - N/A   Overcast
4:35 AM 35.6 °F 27.5 °F 28.4 °F 75% 29.81 in 10.0 mi WSW 11.5 mph - N/A   Overcast
4:55 AM 37.4 °F 29.3 °F 30.2 °F 75% 29.81 in 10.0 mi WSW 12.7 mph - N/A   Overcast
5:15 AM 37.4 °F 28.2 °F 30.2 °F 75% 29.81 in 10.0 mi West 16.1 mph 20.7 mph N/A   Overcast
5:35 AM 37.4 °F 28.9 °F 30.2 °F 75% 29.81 in 10.0 mi West 13.8 mph - N/A   Overcast
5:55 AM 37.4 °F 28.9 °F 30.2 °F 75% 29.81 in 10.0 mi West 13.8 mph 19.6 mph N/A   Overcast
6:35 AM 37.4 °F 28.2 °F 30.2 °F 75% 29.84 in 10.0 mi West 16.1 mph - N/A   Overcast
6:55 AM 37.4 °F 28.5 °F 30.2 °F 75% 29.84 in 10.0 mi West 15.0 mph - N/A   Mostly Cloudy
7:15 AM 37.4 °F 29.3 °F 30.2 °F 75% 29.85 in 10.0 mi West 12.7 mph - N/A   Scattered Clouds
7:35 AM 37.4 °F 29.3 °F 30.2 °F 75% 29.86 in 10.0 mi West 12.7 mph - N/A   Partly Cloudy
7:55 AM 37.4 °F 28.5 °F 30.2 °F 75% 29.86 in 10.0 mi West 15.0 mph - N/A   Clear
8:15 AM 37.4 °F 28.5 °F 30.2 °F 75% 29.86 in 10.0 mi WSW 15.0 mph - N/A   Clear
8:35 AM 37.4 °F 28.5 °F 30.2 °F 75% 29.87 in 10.0 mi West 15.0 mph - N/A   Clear
8:55 AM 37.4 °F 28.5 °F 30.2 °F 75% 29.88 in 10.0 mi West 15.0 mph - N/A   Clear
9:15 AM 39.2 °F 30.2 °F 30.2 °F 70% 29.88 in 10.0 mi West 17.3 mph - N/A   Clear
9:35 AM 39.2 °F 30.5 °F 30.2 °F 70% 29.88 in 10.0 mi West 16.1 mph 23.0 mph N/A   Clear
9:55 AM 41.0 °F 32.5 °F 30.2 °F 65% 29.89 in 10.0 mi West 17.3 mph 21.9 mph N/A   Clear
10:15 AM 42.8 °F 34.5 °F 30.2 °F 61% 29.89 in 10.0 mi West 18.4 mph 23.0 mph N/A   Clear
10:35 AM 42.8 °F 34.8 °F 30.2 °F 61% 29.90 in 10.0 mi West 17.3 mph - N/A   Clear
10:55 AM 44.6 °F 37.2 °F 30.2 °F 57% 29.90 in 10.0 mi West 17.3 mph 24.2 mph N/A   Clear
11:15 AM 46.4 °F 39.0 °F 30.2 °F 53% 29.90 in 10.0 mi West 19.6 mph 25.3 mph N/A   Clear
11:35 AM 46.4 °F 39.5 °F 30.2 °F 53% 29.90 in 10.0 mi West 17.3 mph 23.0 mph N/A   Clear
11:55 AM 46.4 °F 38.3 °F 30.2 °F 53% 29.90 in 10.0 mi West 23.0 mph 31.1 mph N/A   Clear
12:15 PM 46.4 °F 38.3 °F 28.4 °F 50% 29.90 in 10.0 mi West 23.0 mph 31.1 mph N/A   Clear
12:35 PM 48.2 °F - 30.2 °F 50% 29.90 in 10.0 mi WNW 25.3 mph 33.4 mph N/A   Clear
12:55 PM 48.2 °F - 28.4 °F 46% 29.90 in 10.0 mi West 20.7 mph 26.5 mph N/A   Clear
1:15 PM 48.2 °F - 28.4 °F 46% 29.90 in 10.0 mi WNW 25.3 mph 32.2 mph N/A   Clear
1:35 PM 48.2 °F - 30.2 °F 50% 29.91 in 10.0 mi WNW 24.2 mph 31.1 mph N/A   Clear
2:15 PM 48.2 °F - 30.2 °F 50% 29.93 in 10.0 mi NW 18.4 mph 27.6 mph N/A   Clear
2:35 PM 46.4 °F 38.3 °F 30.2 °F 53% 29.93 in 10.0 mi NW 23.0 mph 28.8 mph N/A   Clear
2:55 PM 46.4 °F 39.0 °F 30.2 °F 53% 29.94 in 10.0 mi WNW 19.6 mph 28.8 mph N/A   Clear
3:15 PM 46.4 °F 38.7 °F 30.2 °F 53% 29.96 in 10.0 mi WNW 20.7 mph 28.8 mph N/A   Clear
3:35 PM 46.4 °F 37.9 °F 30.2 °F 53% 29.97 in 10.0 mi NW 25.3 mph 33.4 mph N/A   Clear
3:55 PM 44.6 °F 35.7 °F 30.2 °F 57% 29.98 in 10.0 mi NW 24.2 mph 31.1 mph N/A   Clear
4:15 PM 44.6 °F 37.4 °F 30.2 °F 57% 30.01 in 10.0 mi NW 16.1 mph 27.6 mph N/A   Clear
4:35 PM 42.8 °F 33.8 °F 30.2 °F 61% 30.01 in 10.0 mi NW 21.9 mph 31.1 mph N/A   Clear
4:55 PM 42.8 °F 35.4 °F 30.2 °F 61% 30.04 in 10.0 mi NW 15.0 mph 24.2 mph N/A   Clear
5:15 PM 39.2 °F 32.0 °F 30.2 °F 70% 30.05 in 10.0 mi WNW 11.5 mph - N/A   Clear
5:35 PM 37.4 °F 30.8 °F 30.2 °F 75% 30.07 in 10.0 mi WNW 9.2 mph - N/A   Mostly Cloudy
5:55 PM 39.2 °F 32.5 °F 30.2 °F 70% 30.08 in 10.0 mi WNW 10.4 mph - N/A   Overcast
6:15 PM 37.4 °F 29.3 °F 30.2 °F 75% 30.09 in 10.0 mi NW 12.7 mph - N/A   Overcast
6:35 PM 37.4 °F 28.2 °F 30.2 °F 75% 30.10 in 10.0 mi NW 16.1 mph 21.9 mph N/A   Overcast
6:55 PM 37.4 °F 28.9 °F 30.2 °F 75% 30.11 in 10.0 mi NW 13.8 mph - N/A   Mostly Cloudy
7:15 PM 35.6 °F 29.9 °F 30.2 °F 81% 30.13 in 10.0 mi NW 6.9 mph - N/A   Partly Cloudy
7:35 PM 33.8 °F 27.0 °F 28.4 °F 81% 30.15 in 10.0 mi WNW 8.1 mph - N/A   Scattered Clouds
7:55 PM 33.8 °F 26.4 °F 28.4 °F 81% 30.16 in 10.0 mi NW 9.2 mph - N/A   Scattered Clouds
8:15 PM 33.8 °F 28.6 °F 30.2 °F 87% 30.18 in 10.0 mi NW 5.8 mph - N/A   Mostly Cloudy
8:35 PM 32.0 °F 24.8 °F 28.4 °F 87% 30.19 in 10.0 mi NNW 8.1 mph - N/A   Overcast
8:55 PM 30.2 °F 20.2 °F 26.6 °F 86% 30.21 in 10.0 mi NNE 12.7 mph - N/A   Overcast
9:15 PM 30.2 °F 20.2 °F 26.6 °F 86% 30.21 in 10.0 mi NNE 12.7 mph - N/A   Overcast
9:35 PM 28.4 °F 21.2 °F 24.8 °F 86% 30.22 in 10.0 mi NNE 6.9 mph - N/A   Overcast
9:55 PM 28.4 °F 21.2 °F 23.0 °F 80% 30.24 in 10.0 mi North 6.9 mph - N/A   Overcast
10:15 PM 26.6 °F 19.1 °F 23.0 °F 86% 30.25 in 10.0 mi North 6.9 mph - N/A   Scattered Clouds
10:35 PM 24.8 °F 16.1 °F 21.2 °F 86% 30.24 in 10.0 mi NNE 8.1 mph - N/A   Clear
10:55 PM 24.8 °F 14.6 °F 17.6 °F 74% 30.24 in 10.0 mi NNE 10.4 mph - N/A   Clear
11:15 PM 23.0 °F 13.9 °F 17.6 °F 80% 30.26 in 10.0 mi North 8.1 mph - N/A   Clear
11:35 PM 21.2 °F 16.4 °F 15.8 °F 80% 30.27 in 10.0 mi NNE 3.5 mph - N/A   Clear
11:55 PM 21.2 °F 13.6 °F 15.8 °F 80% 30.27 in 10.0 mi NNE 5.8 mph - N/A   Clear